TimeCDT,TemperatureF,Dew PointF,Humidity,Sea Level PressureIn,VisibilityMPH,Wind Direction,Wind SpeedMPH,Gust SpeedMPH,PrecipitationIn,Events,Conditions,WindDirDegrees,DateUTC
12:13 AM,55.4,51.8,88,30.02,10.0,ESE,12.7,17.3,N/A,,Clear,120,2011-10-10 05:13:00
12:33 AM,55.4,51.8,88,30.02,10.0,ESE,12.7,20.7,N/A,,Clear,120,2011-10-10 05:33:00
1:13 AM,55.4,51.8,88,30.01,10.0,ESE,6.9,-,N/A,,Clear,120,2011-10-10 06:13:00
1:32 AM,55.4,51.8,88,30.00,10.0,ESE,6.9,-,N/A,,Clear,110,2011-10-10 06:32:00
1:53 AM,55.4,51.8,88,30.00,10.0,ESE,10.4,-,N/A,,Clear,120,2011-10-10 06:53:00
2:13 AM,55.4,51.8,88,30.00,10.0,SE,11.5,-,N/A,,Clear,130,2011-10-10 07:13:00
2:33 AM,57.2,51.8,82,29.99,10.0,ESE,9.2,16.1,N/A,,Clear,120,2011-10-10 07:33:00
2:53 AM,57.2,51.8,82,29.99,10.0,ESE,6.9,16.1,N/A,,Clear,120,2011-10-10 07:53:00
3:32 AM,57.2,50.0,77,29.97,10.0,ESE,8.1,-,N/A,,Clear,120,2011-10-10 08:32:00
3:53 AM,57.2,50.0,77,29.97,10.0,ESE,8.1,-,N/A,,Clear,120,2011-10-10 08:53:00
4:13 AM,57.2,50.0,77,29.96,10.0,ESE,10.4,-,N/A,,Clear,120,2011-10-10 09:13:00
4:33 AM,55.4,48.2,77,29.96,10.0,ESE,10.4,-,N/A,,Clear,120,2011-10-10 09:33:00
4:53 AM,55.4,48.2,77,29.96,10.0,Calm,Calm,-,N/A,,Clear,0,2011-10-10 09:53:00
5:13 AM,55.4,48.2,77,29.95,10.0,ESE,9.2,-,N/A,,Clear,120,2011-10-10 10:13:00
5:33 AM,53.6,48.2,82,29.95,10.0,ESE,9.2,-,N/A,,Clear,120,2011-10-10 10:33:00
5:53 AM,53.6,48.2,82,29.95,10.0,SE,10.4,-,N/A,,Clear,130,2011-10-10 10:53:00
6:13 AM,53.6,48.2,82,29.94,10.0,ESE,9.2,-,N/A,,Clear,120,2011-10-10 11:13:00
6:33 AM,53.6,48.2,82,29.93,10.0,ESE,8.1,-,N/A,,Clear,120,2011-10-10 11:33:00
6:53 AM,53.6,48.2,82,29.93,10.0,SE,4.6,-,N/A,,Clear,130,2011-10-10 11:53:00
7:13 AM,53.6,48.2,82,29.92,10.0,SE,10.4,-,N/A,,Clear,130,2011-10-10 12:13:00
7:33 AM,53.6,48.2,82,29.91,10.0,SE,11.5,16.1,N/A,,Clear,130,2011-10-10 12:33:00
8:12 AM,55.4,50.0,82,29.91,10.0,SE,12.7,-,N/A,,Clear,130,2011-10-10 13:12:00
8:33 AM,57.2,50.0,77,29.91,10.0,SE,10.4,-,N/A,,Scattered Clouds,140,2011-10-10 13:33:00
8:53 AM,57.2,50.0,77,29.90,10.0,SE,10.4,-,N/A,,Scattered Clouds,140,2011-10-10 13:53:00
9:13 AM,59.0,50.0,72,29.90,10.0,SE,10.4,16.1,N/A,,Clear,140,2011-10-10 14:13:00
9:33 AM,59.0,50.0,72,29.90,10.0,SE,10.4,-,N/A,,Clear,140,2011-10-10 14:33:00
9:53 AM,60.8,50.0,68,29.89,10.0,SE,10.4,-,N/A,,Clear,140,2011-10-10 14:53:00
10:33 AM,60.8,50.0,68,29.89,10.0,SSE,12.7,16.1,N/A,,Scattered Clouds,150,2011-10-10 15:33:00
10:53 AM,62.6,51.8,68,29.89,10.0,SSE,12.7,-,N/A,,Scattered Clouds,160,2011-10-10 15:53:00
11:12 AM,62.6,51.8,68,29.88,10.0,SSE,16.1,20.7,N/A,,Mostly Cloudy,150,2011-10-10 16:12:00
11:33 AM,62.6,51.8,68,29.88,10.0,SSE,18.4,21.9,N/A,,Mostly Cloudy,160,2011-10-10 16:33:00
11:53 AM,62.6,51.8,68,29.88,10.0,South,18.4,21.9,N/A,,Overcast,170,2011-10-10 16:53:00
12:13 PM,62.6,51.8,68,29.88,10.0,South,19.6,23.0,N/A,,Overcast,190,2011-10-10 17:13:00
12:33 PM,60.8,51.8,72,29.88,10.0,South,15.0,20.7,N/A,Rain,Light Rain,180,2011-10-10 17:33:00
12:53 PM,60.8,53.6,77,29.88,10.0,South,16.1,-,N/A,,Drizzle,180,2011-10-10 17:53:00
1:13 PM,57.2,53.6,88,29.87,10.0,South,11.5,-,N/A,,Light Drizzle,190,2011-10-10 18:13:00
1:33 PM,57.2,53.6,88,29.87,10.0,South,11.5,-,N/A,,Light Drizzle,190,2011-10-10 18:33:00
1:53 PM,57.2,55.4,94,29.86,10.0,South,12.7,-,N/A,Rain,Light Rain,180,2011-10-10 18:53:00
1:55 PM,57.2,55.4,94,29.86,10.0,South,12.7,-,0.01,Rain,Light Rain,180,2011-10-10 18:55:00
2:13 PM,57.2,55.4,94,29.85,10.0,South,15.0,-,N/A,Rain,Light Rain,170,2011-10-10 19:13:00
2:33 PM,57.2,55.4,94,29.84,10.0,South,13.8,-,0.01,Rain,Light Rain,170,2011-10-10 19:33:00
2:53 PM,57.2,55.4,94,29.83,10.0,SSE,11.5,-,0.02,Rain,Light Rain,150,2011-10-10 19:53:00
2:55 PM,59.0,55.4,88,29.83,10.0,SSE,10.4,16.1,0.02,Rain,Light Rain,150,2011-10-10 19:55:00
3:13 PM,60.8,57.2,88,29.82,10.0,SSE,15.0,18.4,N/A,,Overcast,150,2011-10-10 20:13:00
3:53 PM,62.6,55.4,77,29.80,10.0,SSE,20.7,26.5,N/A,,Scattered Clouds,160,2011-10-10 20:53:00
4:13 PM,62.6,55.4,77,29.79,10.0,SSE,18.4,25.3,N/A,,Scattered Clouds,160,2011-10-10 21:13:00
4:33 PM,62.6,53.6,72,29.79,10.0,South,16.1,-,N/A,,Mostly Cloudy,170,2011-10-10 21:33:00
4:53 PM,62.6,53.6,72,29.78,10.0,South,19.6,31.1,N/A,,Scattered Clouds,170,2011-10-10 21:53:00
5:12 PM,62.6,53.6,72,29.77,10.0,South,21.9,26.5,N/A,,Scattered Clouds,170,2011-10-10 22:12:00
5:33 PM,60.8,51.8,72,29.78,10.0,South,18.4,27.6,N/A,,Mostly Cloudy,170,2011-10-10 22:33:00
5:53 PM,60.8,51.8,72,29.78,10.0,South,20.7,27.6,N/A,,Mostly Cloudy,180,2011-10-10 22:53:00
6:33 PM,55.4,51.8,88,29.79,10.0,SSW,15.0,20.7,N/A,,Mostly Cloudy,210,2011-10-10 23:33:00
7:13 PM,53.6,51.8,94,29.80,10.0,SSW,10.4,-,N/A,,Clear,210,2011-10-11 00:13:00
7:33 PM,53.6,51.8,94,29.80,10.0,SSW,6.9,-,N/A,,Scattered Clouds,200,2011-10-11 00:33:00
7:52 PM,51.8,50.0,94,29.80,10.0,South,4.6,-,N/A,,Mostly Cloudy,180,2011-10-11 00:52:00
8:33 PM,53.6,51.8,94,29.80,10.0,South,6.9,-,N/A,,Overcast,170,2011-10-11 01:33:00
8:52 PM,53.6,51.8,94,29.80,10.0,South,8.1,-,N/A,,Overcast,180,2011-10-11 01:52:00
9:13 PM,53.6,51.8,94,29.80,10.0,South,10.4,-,N/A,,Overcast,180,2011-10-11 02:13:00
9:33 PM,53.6,50.0,88,29.80,10.0,South,9.2,-,N/A,,Overcast,170,2011-10-11 02:33:00
9:52 PM,53.6,48.2,82,29.80,10.0,South,8.1,-,N/A,,Scattered Clouds,170,2011-10-11 02:52:00
10:33 PM,50.0,46.4,87,29.79,10.0,South,5.8,-,N/A,,Clear,170,2011-10-11 03:33:00
10:54 PM,50.0,46.4,87,29.79,10.0,SSE,6.9,-,N/A,,Scattered Clouds,160,2011-10-11 03:54:00
11:13 PM,51.8,48.2,88,29.78,10.0,SSE,8.1,-,N/A,,Clear,150,2011-10-11 04:13:00
11:32 PM,51.8,50.0,94,29.78,10.0,SE,6.9,-,N/A,,Clear,140,2011-10-11 04:32:00